SCP
0 0 0 0 0 0 0 0 0 0 0 0 0 0 0 0 0 0 0 0 1 0 0 0 0 0 0 0 0 0 0 0 0 0 0 0 0 -0 -0 0 0 0 0 0
0 0 0 0 0 0 0 0 0 0 0 0 0 0 0 0 0 0 0 0 0 0 0 0 0 0 0 0 0 0 0 0 0 0 0 0 0 0 0 0 0 0 0 0
0 0 0 0 0 0 0 0 0 0 0 0 0 0 0 0 0 0 0 0 0 0 0 0 0 0 0 0 0 0 0 0 0 0 0 0 0 0 0 0 0 0 0 0
0 0 0 0 0 0 0 0 0 0 0 0 0 0 0 0 0 0 0 0 0 0 0 0 0 0 0 0 0 0 0 0 0 0 0 0 0 0 0 0 0 0 0 0
0 0 0 0 0 0 0 0 0 0 0 0 0 0 0 0 0 0 0 0 0 0 0 0 0 0 0 0 0 0 0 0 0 0 0 0 0 0 0 0 0 0 0 0
0 0 0 0 0 0 0 0 0 0 0 0 0 0 0 0 0 0 0 0 0 0 0 0 0 0 0 0 0 0 0 0 0 0 0 0 0 0 0 0 0 0 0 0
0 0 0 0 0 0 0 0 0 0 0 0 0 0 0 0 0 0 0 0 0 0 0 0 0 0 0 0 0 0 0 0 0 0 0 0 0 0 0 0 0 0 0 0
0 0 0 0 0 0 0 0 0 0 0 0 0 0 0 0 0 0 0 0 0 0 0 0 0 0 0 0 0 0 0 0 0 0 0 0 0 0 0 0 0 0 0 0
0 0 0 0 0 0 0 0 0 0 0 0 0 0 0 0 0 0 0 0 0 0 0 0 0 0 0 0 0 0 0 0 0 0 0 0 0 0 0 0 0 0 0 0
0 0 0 0 0 0 0 0 0 0 0 0 0 0 0 0 0 0 0 0 0 0 0 0 0 0 0 0 0 0 0 0 0 0 0 0 0 0 0 0 0 0 0 0
0 -0 -0 0 0 0 0 -0 -0 0 0 0 0 0 0 0 0 0 0 0 0 0 0 0 0 0 0 0 0 0 0 0 0 0 0 0 0 0 0 0 0 0 0 0
-0 -0 -0 0 0 0 0 -0 -0 -0 0 0 0 0 0 0 0 0 0 0 0 0 0 0 0 0 0 0 0 0 0 0 0 0 0 0 0 0 0 0 0 0 0 0
-0 -0 -0 -0 0 0 0 0 0 -0 0 0 0 0 0 0 0 0 0 0 0 0 0 0 0 0 0 0 0 0 0 0 0 0 -0 -0 0 0 0 0 0 0 0 0
-0 0 0 0 0 0 0 0 0 0 0 0 0 0 0 0 0 0 0 0 0 0 0 0 0 0 0 0 0 0 0 0 0 0 -0 -0 -0 -0 0 0 0 0 0 0
0 0 0 0 0 0 0 0 0 0 0 0 0 0 0 0 0 0 0 0 0 0 0 0 0 0 0 0 0 0 0 0 0 0 0 0 -0 -0 -0 -0 -0 0 0 0
0 0 0 0 0 0 0 0 0 0 0 0 0 0 0 0 0 0 0 0 0 0 0 0 0 0 0 0 0 0 0 0 0 0 0 0 0 -0 -0 0 0 0 0 0
0 0 0 0 0 0 0 0 0 0 0 0 0 0 0 0 0 0 0 0 0 0 0 0 0 0 0 0 0 0 0 0 0 0 0 0 0 0 0 0 0 0 0 0
0 0 0 0 0 0 0 0 0 0 0 0 0 0 0 0 0 0 0 0 0 0 0 0 0 0 0 0 0 0 0 0 0 0 0 0 0 0 0 0 0 0 0 0
0 0 0 0 0 0 0 0 0 0 0 0 0 0 0 0 0 0 0 0 0 0 0 0 0 0 0 0 0 0 0 0 0 0 0 0 0 0 0 0 0 0 0 0
0 0 0 0 0 0 0 0 0 0 0 0 0 0 0 0 0 0 0 0 0 0 0 0 0 0 0 0 0 0 0 0 0 0 0 0 0 0 0 0 0 0 0 0
0 0 0 0 0 0 0 0 0 0 0 0 0 0 0 0 0 0 0 0 0 0 0 0 0 0 0 0 0 0 0 0 0 0 0 0 0 0 0 0 0 0 0 0
0 0 0 0 0 0 0 0 0 0 0 0 0 0 0 0 0 0 0 0 0 0 0 0 0 0 0 0 0 0 0 0 0 0 0 0 0 0 0 0 0 0 0 0
0 0 0 0 0 0 0 0 0 0 0 0 0 0 0 0 0 0 0 0 0 0 0 0 0 0 0 0 0 0 0 0 0 0 0 0 0 0 0 0 0 0 0 0
0 0 0 0 0 0 0 0 0 0 0 0 0 0 0 0 0 0 0 0 0 0 0 0 0 0 0 0 0 0 0 0 0 0 0 0 0 0 0 0 0 0 0 0
0 0 0 0 0 0 0 0 0 0 0 0 0 0 0 0 0 0 0 0 0 0 0 0 0 0 0 0 0 0 0 0 0 0 0 0 0 0 0 0 0 0 0 0
0 0 0 0 0 0 0 0 0 0 0 0 0 0 0 0 0 0 0 0 0 0 0 0 0 0 0 0 0 0 0 0 0 0 0 0 0 0 0 0 0 0 0 0
0 0 0 0 0 0 0 0 0 0 0 0 0 0 0 0 0 0 0 0 0 0 0 0 0 0 0 0 0 0 0 0 0 0 0 0 0 0 0 0 0 0 0 0
Wind_Speed
6 7 4 6 8 6 6 8 9 9 10 11 8 7 8 7 5 7 8 9 11 11 10 9 9 10 10 9 9 8 7 7 7 6 5 5 4 4 4 3 4 3 2 2
4 4 3 6 10 10 10 8 9 11 13 11 7 5 5 4 6 8 9 10 11 10 9 9 11 11 11 10 10 9 10 10 8 7 7 7 6 6 5 4 3 2 2 1
4 4 6 9 10 9 8 8 10 14 14 7 4 5 7 7 7 8 7 6 5 5 5 5 6 8 10 10 9 10 11 10 9 8 8 8 7 5 5 4 2 1 1 1
2 2 7 11 5 6 7 11 12 11 9 8 8 7 5 7 8 7 7 6 5 5 4 2 0 3 6 6 8 10 10 10 10 9 9 8 8 7 6 4 3 2 2 3
2 2 8 13 8 4 4 9 9 8 6 6 5 3 2 1 5 7 7 7 6 5 5 4 4 2 3 4 5 7 8 8 9 10 10 9 9 8 5 4 3 3 3 3
4 2 6 11 7 6 4 7 7 1 5 6 7 4 4 0 5 8 8 7 7 6 6 6 4 5 7 5 4 2 5 7 9 10 11 10 8 6 4 3 4 3 4 4
4 3 9 12 8 3 1 6 5 1 5 6 7 6 6 8 7 7 8 7 7 7 6 5 4 7 7 6 5 2 2 2 4 5 7 7 6 5 4 4 4 4 4 3
4 4 10 4 7 3 6 6 1 2 3 5 5 7 9 9 8 8 7 6 6 6 5 4 5 7 7 4 3 4 4 4 3 3 4 5 6 5 5 5 5 4 3 3
4 7 7 9 10 15 14 9 3 3 3 6 7 7 8 8 8 7 6 5 4 5 4 3 3 5 6 4 4 5 4 3 2 3 3 3 4 5 4 4 3 3 3 3
5 11 13 15 15 18 13 7 4 5 5 7 7 8 8 9 7 7 5 5 4 4 3 2 2 3 4 4 4 4 3 2 2 2 2 2 2 3 4 4 3 3 3 3
6 9 13 12 13 19 18 6 4 4 4 6 9 9 10 9 9 7 5 5 5 5 4 4 4 3 2 3 4 3 3 3 3 2 2 2 2 2 2 3 4 4 3 3
6 6 9 17 21 23 22 14 3 3 2 3 6 11 11 10 9 8 6 5 4 4 4 3 3 4 3 4 4 3 2 2 2 2 2 2 3 3 7 3 4 5 4 3
7 10 14 22 26 25 20 16 5 4 4 3 4 9 11 9 9 8 7 7 6 5 3 2 3 4 4 4 4 4 2 2 1 1 2 2 2 3 3 2 4 4 4 4
11 13 19 23 24 23 22 19 10 4 4 5 6 8 10 8 8 9 9 9 7 5 4 5 5 4 4 4 4 4 3 3 3 2 1 2 2 3 3 3 2 1 3 4
16 17 20 23 22 19 16 13 8 6 4 3 6 10 12 12 12 11 9 7 5 5 5 6 6 5 4 5 6 4 3 2 1 1 1 1 1 1 2 2 3 3 2 3
17 18 18 18 18 15 11 11 8 7 5 5 7 10 13 13 12 10 8 6 6 7 7 7 7 6 6 7 6 3 2 3 2 1 1 2 1 1 2 3 4 3 3 2
17 19 17 16 15 14 12 11 10 8 6 7 10 10 10 10 9 8 7 7 7 8 7 7 7 6 6 6 5 3 2 1 2 2 1 1 1 2 3 3 3 2 2 2
13 16 15 15 15 15 15 13 10 7 6 7 9 10 11 11 11 9 7 5 6 5 5 7 8 7 6 5 4 3 3 2 1 1 1 1 2 2 2 2 2 3 2 1
15 14 16 18 17 15 14 13 10 7 6 6 10 12 11 12 10 8 7 8 8 7 6 7 12 8 6 5 5 3 3 3 2 1 2 3 3 2 2 2 2 3 2 2
22 18 16 18 17 15 13 11 9 7 6 7 10 10 9 9 8 9 9 8 7 7 9 9 9 7 6 5 6 3 3 3 3 3 3 3 3 2 2 2 2 2 2 2
24 24 20 16 15 14 12 10 8 8 6 7 10 12 11 9 9 9 9 5 4 6 10 12 7 6 5 5 6 3 3 3 3 3 3 3 2 2 2 2 2 2 1 1
24 24 23 16 12 12 10 8 7 6 5 6 9 9 9 8 8 7 6 5 8 12 9 6 6 8 8 7 4 4 3 4 3 3 2 2 2 2 2 1 1 1 1 1
21 22 23 17 9 8 6 5 6 5 5 7 8 10 10 9 9 8 6 4 8 13 9 6 9 13 12 6 4 4 4 4 3 3 3 2 2 2 2 2 2 2 1 1
22 22 22 18 9 3 4 5 5 4 5 6 7 10 10 8 4 2 5 12 14 14 8 10 15 14 10 4 4 4 4 4 3 3 3 3 3 3 3 3 2 2 2 3
20 20 20 17 11 6 4 3 2 3 4 3 5 7 7 7 8 8 8 10 15 13 8 12 17 13 7 5 5 5 4 4 3 3 3 3 3 3 3 3 3 3 3 2
18 17 16 14 10 7 3 2 3 3 5 5 4 4 5 6 9 9 9 10 12 12 9 7 7 8 5 5 5 5 4 4 3 3 3 3 3 3 3 3 3 3 2 2
17 15 14 13 11 8 4 2 4 5 6 8 7 5 7 8 8 9 10 9 8 8 7 6 6 5 5 5 5 4 4 3 2 2 2 2 3 3 3 3 2 2 2 2
Wind_Direction
237 255 235 233 253 257 234 204 207 235 238 246 254 267 281 259 199 179 182 183 189 195 198 193 186 185 186 185 180 175 178 188 193 187 183 187 205 217 217 215 221 219 204 212
285 284 296 264 249 246 251 239 230 239 250 244 242 240 262 243 190 189 193 195 200 204 202 201 196 193 194 193 188 182 189 202 198 184 186 194 205 210 212 212 205 189 198 237
277 311 345 282 247 233 232 228 227 237 242 240 220 217 225 220 205 196 185 181 188 198 203 212 215 205 203 201 189 191 200 203 197 189 189 195 196 192 196 195 186 188 224 250
269 12 259 257 260 247 262 263 245 238 232 209 205 211 219 198 171 157 140 126 116 107 94 73 113 198 202 192 187 196 201 198 193 190 192 187 184 189 191 184 193 217 253 271
148 233 279 288 282 243 250 276 267 244 216 182 166 94 349 232 144 139 131 128 119 112 100 60 34 49 115 151 184 197 200 192 191 189 191 186 189 192 186 182 200 216 230 245
131 168 258 266 290 327 346 308 307 151 159 156 134 133 231 156 98 101 103 106 105 99 84 62 37 61 78 85 105 182 210 199 192 191 189 187 188 183 180 186 209 229 232 230
148 204 260 267 294 313 203 262 293 137 156 161 180 194 166 128 116 114 112 109 101 86 73 61 67 79 73 69 69 70 86 132 179 191 190 183 177 170 181 191 205 225 224 226
164 214 252 339 348 305 268 279 215 143 163 162 152 127 128 133 132 125 118 112 105 96 85 73 91 96 89 84 89 83 77 80 98 134 178 182 168 167 175 176 183 190 198 222
220 243 286 337 307 292 291 269 214 146 155 141 138 147 145 147 143 132 127 131 129 124 114 99 112 120 123 153 137 108 92 81 84 102 115 143 158 160 159 161 162 176 187 211
276 281 309 314 316 313 291 232 182 171 162 157 164 162 157 154 146 140 144 150 148 143 155 205 210 168 160 167 144 117 113 113 113 112 115 141 156 157 154 164 169 183 196 209
279 301 318 314 326 332 323 289 175 186 180 164 161 165 166 161 155 158 167 167 159 169 200 236 240 227 201 158 127 103 95 115 119 122 115 96 90 89 174 185 177 177 199 199
252 288 297 295 303 315 317 297 246 174 176 168 164 170 164 161 161 166 175 173 177 196 218 251 231 204 179 150 133 119 97 108 124 120 100 99 109 79 50 71 118 135 138 138
250 277 281 285 295 303 307 296 258 185 185 186 164 161 159 157 163 170 179 181 194 210 212 190 158 159 157 144 134 134 133 131 131 127 132 144 150 152 141 78 59 65 70 80
276 279 278 278 284 290 295 293 271 223 196 180 162 154 153 149 161 177 190 197 199 193 178 165 157 165 171 152 135 128 121 114 120 129 150 161 169 171 167 163 146 81 53 78
263 257 262 273 279 282 289 292 272 245 227 185 159 157 158 161 174 191 201 198 178 171 173 165 161 166 149 131 126 128 127 125 119 102 117 154 159 144 145 151 141 138 129 95
267 265 267 272 278 284 292 300 281 251 222 187 172 173 172 172 179 191 199 182 167 181 179 169 165 162 140 131 133 139 159 167 143 94 66 43 57 106 125 132 138 149 165 164
262 263 268 275 282 289 289 292 284 260 224 189 184 176 166 164 175 192 200 191 182 180 171 163 160 151 140 137 140 155 170 172 134 97 96 90 111 121 132 138 147 161 187 186
263 251 258 269 280 288 290 292 292 269 227 201 173 162 165 172 185 197 193 163 147 143 156 153 146 139 133 130 131 140 153 156 142 134 144 141 134 125 123 135 148 147 130 128
320 275 261 263 264 269 273 270 266 261 235 180 168 175 179 184 187 180 156 149 152 159 170 157 147 138 133 127 117 114 138 143 127 103 108 125 118 111 117 128 133 140 150 164
337 323 291 269 261 257 256 253 249 242 223 182 177 178 179 182 174 162 159 170 178 170 160 155 147 143 144 138 121 103 117 129 118 106 107 119 131 140 148 159 160 166 182 200
334 329 314 284 261 251 245 244 236 225 217 183 179 184 184 178 165 159 160 173 181 148 147 148 144 144 144 142 128 115 111 117 116 111 113 125 139 151 164 173 179 190 207 217
331 329 322 301 260 246 245 234 217 212 203 187 187 177 162 158 161 160 164 163 155 148 141 138 138 147 149 140 130 128 126 121 114 114 112 114 130 148 145 147 163 182 197 203
326 325 324 315 280 245 239 221 208 197 184 178 173 167 164 164 163 157 161 150 145 145 138 141 149 148 141 133 131 127 122 121 120 120 120 112 109 120 122 118 122 133 141 139
326 325 323 319 308 270 244 241 222 203 185 173 173 167 156 145 134 118 127 140 141 134 136 150 150 144 133 128 128 125 122 122 122 123 118 109 105 104 107 107 101 98 98 94
322 322 324 327 325 305 270 244 168 153 144 141 148 149 150 148 146 141 136 139 140 134 137 156 151 138 125 124 125 126 130 139 143 139 136 134 131 124 116 107 100 96 94 93
321 322 320 317 310 300 286 188 157 147 131 118 109 108 106 105 116 125 129 132 138 137 138 140 136 126 123 131 136 138 142 149 150 145 146 139 139 134 128 125 123 122 114 103
319 320 320 323 328 325 304 219 167 156 149 141 131 122 123 124 125 127 129 133 136 137 138 136 130 127 132 141 146 147 147 148 147 144 137 134 139 142 145 142 134 124 116 91